Location: Bucharest
(44.4268°N, 26.1025°E)
Time: 07:51:45
(UTC+03:00)

Oscar 19 - Pass Details

Date: 30 June 2022
Orbit: 773 x 790 km, 98.8° (Epoch: 14 August)

Event Time Altitude Azimuth Distance (km) Brightness Sun altitude
Rises 03:56:43 0° 25° (NNE) 3,261 15.6 -13.4°
Reaches altitude 10° 03:59:22 10° 37° (NE) 2,328 14.6 -13.1°
Maximum altitude 04:03:42 27° 95° (E) 1,452 12.4 -12.7°
Drops below altitude 10° 04:08:00 10° 153° (SSE) 2,313 12.9 -12.2°
Sets 04:10:37 0° 165° (SSE) 3,236 13.5 -11.9°
